This is the latest recevied weather packets stored in our database for station/object KC5TIL-3. If no packets are shown the sender has not sent any weather packets the latest 1 day(s).
| Time | Temp. | Humidity | Pressure | Rain* | Wind** | Luminosity | Snow |
|---|---|---|---|---|---|---|---|
| 1778010808 | 31.67° C | 18% | 1002.8 hPa | 0 mm | 2.68 m/s, 65° | - | - |
| 1778010510 | 31.11° C | 20% | 1002.8 hPa | 0 mm | 2.68 m/s, 100° | - | - |
| 1778010212 | 30.56° C | 20% | 1002.8 hPa | 0 mm | 4.02 m/s, 184° | - | - |
| 1778009910 | 30.56° C | 20% | 1002.8 hPa | 0 mm | 4.47 m/s, 210° | - | - |
| 1778009612 | 31.11° C | 21% | 1002.8 hPa | 0 mm | 2.68 m/s, 131° | - | - |
| 1778009013 | 30.56° C | 22% | 1002.8 hPa | 0 mm | 4.47 m/s, 226° | - | - |
| 1778008417 | 30° C | 23% | 1002.8 hPa | 0 mm | 4.47 m/s, 220° | - | - |
| 1778008115 | 30.56° C | 22% | 1002.8 hPa | 0 mm | 3.13 m/s, 7° | - | - |
| 1778007812 | 30.56° C | 24% | 1002.8 hPa | 0 mm | 3.13 m/s, 206° | - | - |
| 1778007514 | 30.56° C | 23% | 1002.8 hPa | 0 mm | 2.68 m/s, 150° | - | - |
| 1778007212 | 30° C | 25% | 1002.8 hPa | 0 mm | 4.47 m/s, 214° | - | - |
| 1778006905 | 30° C | 26% | 1002.8 hPa | 0 mm | 3.13 m/s, 226° | - | - |
| 1778006607 | 28.89° C | 29% | 1002.8 hPa | 0 mm | 4.92 m/s, 156° | - | - |
| 1778006306 | 29.44° C | 29% | 1002.8 hPa | 0 mm | 3.58 m/s, 196° | - | - |
| 1778006008 | 28.89° C | 30% | 1002.8 hPa | 0 mm | 4.47 m/s, 197° | - | - |
| 1778005408 | 28.33° C | 31% | 1002.8 hPa | 0 mm | 4.92 m/s, 217° | - | - |
| 1778005110 | 28.33° C | 31% | 1002.8 hPa | 0 mm | 3.13 m/s, 184° | - | - |
| 1778004510 | 28.33° C | 30% | 1002.8 hPa | 0 mm | 4.02 m/s, 176° | - | - |
| 1778004208 | 27.78° C | 32% | 1002.8 hPa | 0 mm | 4.47 m/s, 159° | - | - |
| 1778003910 | 27.78° C | 31% | 1002.8 hPa | 0 mm | 4.92 m/s, 141° | - | - |
| 1778003608 | 27.78° C | 34% | 1002.8 hPa | 0 mm | 6.71 m/s, 188° | - | - |
| 1778003305 | 27.78° C | 33% | 1002.8 hPa | 0 mm | 5.36 m/s, 198° | - | - |
| 1778003002 | 27.22° C | 34% | 1002.8 hPa | 0 mm | 6.71 m/s, 226° | - | - |
| 1778002701 | 27.22° C | 35% | 1002.8 hPa | 0 mm | 5.81 m/s, 152° | - | - |
| 1778002403 | 27.22° C | 34% | 1002.8 hPa | 0 mm | 4.92 m/s, 216° | - | - |
* Rain latest hour (hover to see other rain measurements)
** Current wind speed in m/s (hover to see current wind gust speed)